Regional Weather Roundup
Issued by NWS Sterling, VA

Home | Current Version | Previous Version | Text Only | Print | Product List | Glossary On
Versions: 1 2 3 4 5 6 7 8 9 10 11 12 13 14 15 16 17 18 19 20 21 22 23 24 25 26 27 28
000
ASUS41 KLWX 200110
RWRLWX

REGIONAL WEATHER ROUNDUP
NATIONAL WEATHER SERVICE BALTIMORE MD/WASHINGTON DC
900 PM EDT SAT APR 19 2014

Note: "FAIR" indicates few or no clouds below 12,000 feet
with no significant weather and/or obstructions to visibility.
 TC=TEMPERATURE CELSIUS

 * =Non NWS site. Station does not report precipitation (e.g. rain,
    snow, etc.), thunder, or fog.

DCZ001-MDZ009-015-VAZ040>042-051-053>054-200200-
WASHINGTON METRO

CITY           SKY/WX    TMP DP  RH WIND       PRES   REMARKS
WASHINGTON NAT CLOUDY    62  29  28 NE7       30.27R
DULLES         CLOUDY    57  26  30 NE6       30.27R
ANDREWS AFB    CLOUDY    56  33  42 NE6       30.27R
FT BELVOIR     CLOUDY    58  31  35 VRB1      30.27R
QUANTICO       CLOUDY    57  43  59 NW3       30.27R
COLLEGE PARK*  CLOUDY    57  30  35 CALM      30.28R
LEESBURG*      CLOUDY    59  30  33 NE5       30.29R
MANASSAS*      CLOUDY    61  25  25 N7        30.26R
GAITHERSBURG*  MOCLDY    55  25  30 N5        30.30R

$$

MDZ006>007-011-014-200200-
BALTIMORE METRO

CITY           SKY/WX    TMP DP  RH WIND       PRES   REMARKS
BWI AIRPORT    CLOUDY    60  28  29 NE8       30.27R
MD SCIENCE CTR   N/A     62  29  28 MISG      30.28R
MARTIN STATE   MOCLDY    61  28  29 CALM      30.29R
ANNAPOLIS      CLOUDY    61  35  37 NE5       30.27R
FORT MEADE*    CLOUDY    55  30  38 CALM      30.30R

$$

MDZ012-015-019>023-200200-
MARYLAND EASTERN SHORE

CITY           SKY/WX    TMP DP  RH WIND       PRES   REMARKS
OCEAN CITY     CLOUDY    50  39  66 E6        30.28R
SALISBURY      CLOUDY    54  35  48 E6        30.27R
BAY BRIDGE AP* CLOUDY    59  32  36 CALM      30.28R
CAMBRIDGE*     CLOUDY    55  32  41 E8        30.28R
EASTON*        CLOUDY    57  41  54 SE3       30.32R

$$

MDZ017>025-200200-
SOUTHERN MARYLAND

CITY           SKY/WX    TMP DP  RH WIND       PRES   REMARKS
PATUXENT RIVER CLOUDY    54  41  61 SE8       30.26R
ST INIGOES     CLOUDY    56  30  37 E8        30.25R
LEONARDTOWN*   CLOUDY    55  37  50 E3        30.27R

$$

MDZ003>005-200200-
NORTH CENTRAL MARYLAND

CITY           SKY/WX    TMP DP  RH WIND       PRES   REMARKS
FREDERICK*     MOCLDY    52  34  50 N5        30.31R
HAGERSTOWN APT MOCLDY    55  26  32 NE7       30.29R
WESTMINSTER*   MOCLDY    55  25  30 CALM      30.30R

$$

MDZ501>502-200200-
WESTERN MARYLAND

CITY           SKY/WX    TMP DP  RH WIND       PRES   REMARKS
OAKLAND*       CLOUDY    50   3  14 E6        30.28R
CUMBERLAND*    CLOUDY    61  21  21 NW3       30.31R

$$

VAZ025>031-200200-
SHENANDOAH VALLEY

CITY           SKY/WX    TMP DP  RH WIND       PRES   REMARKS
WINCHESTER*    CLOUDY    55  32  41 CALM      30.27R
STAUNTON*      CLOUDY    55  37  50 E5        30.27R

$$

WVZ021-048>050-054>055-200200-
EASTERN WEST VIRGINIA PANHANDLE

CITY           SKY/WX    TMP DP  RH WIND       PRES   REMARKS
MARTINSBURG    CLOUDY    57  28  33 NE6       30.28R
PETERSBURG*    CLOUDY    55  45  69 W7        30.26R

$$

VAZ036>039-050-200200-
CENTRAL FOOTHILLS

CITY           SKY/WX    TMP DP  RH WIND       PRES   REMARKS
CHARLOTTESVILL CLOUDY    59  39  47 N3        30.24R
CULPEPER*      CLOUDY    63  28  27 CALM      30.27R

$$

VAZ055>057-200200-
NORTH AND CENTRAL PIEDMONT

CITY           SKY/WX    TMP DP  RH WIND       PRES   REMARKS
FREDERICKSBRG* CLOUDY    57  43  58 CALM      30.25R
STAFFORD*      CLOUDY    56  42  59 CALM      30.30R

$$

NCZ024-NYZ072-PAZ021-071-VAZ022-071-200200-
OTHER REGIONAL OBSERVATIONS

CITY           SKY/WX    TMP DP  RH WIND       PRES   REMARKS
NEW YORK CITY  MOCLDY    60  21  22 VRB5      30.32R
PHILADELPHIA   CLOUDY    62  21  20 N7        30.28R
PITTSBURGH     MOCLDY    58  21  24 NE3       30.28R
ROANOKE        CLOUDY    58  40  51 CALM      30.26R
RICHMOND       CLOUDY    58  41  53 NE3       30.24R
RALEIGH        CLOUDY    52  43  71 NE7       30.20S

$$

ANZ530>537-200200-
MARINE OBSERVATIONS

STATION/POSITION TIME  TEMP    WIND        PRES
                       AIR SEA DIR/SP/G
                 (UTC) (F)     (DEG/KT/KT) (MB)
THOMAS PT LIGHT  0100   59 53   40/ 10/ 11 1025.5R
BALT KEY BRIDGE  0100   62      30/  7/  8 1025.0R
COVE POINT       0100   57     180/  8/ 11 1024.3S
LEWISETTA        0100   56 54  130/  7/  8 1024.2R
SOLOMONS ISLAND  0100      53                N/A
PINEY POINT      0100          150/  5/  6   N/A

$$




USA.gov is the U.S. government's official web portal to all federal, state and local government web resources and services.